Location: Unspecified
(48.7670°N, 0.0000°E)
Time: 04:06:20
(UTC+00:00)

Vanguard 2 Rocket - Pass Details

Date: 07 October 2020
Orbit: 554 x 3326 km, 32.9° (Epoch: 26 October)

Event Time Altitude Azimuth Distance (km) Brightness Sun altitude
Exits shadow 05:12:59 11° 262° (W) 5,780 10.3 -10.0°
Maximum altitude 05:28:16 34° 208° (SSW) 4,580 10.2 -7.5°
Drops below altitude 10° 05:44:14 10° 153° (SSE) 5,903 11.5 -4.9°
Sets 05:49:02 0° 145° (SE) 6,646 11.9 -4.1°
